Home > Time Zones > World Clock > Weather > Iran > Kerman > Past weeks

Flag for Iran Weather past 2 weeks in Kerman, Iran

Now
28 °F

Clear.


Feels Like: 23 °F
Forecast: 24 / 65 °F
Wind: 5 mph from Southeast

Location: Kerman Airport

Current Time: Mar 7, 2015 at 5:10:43 AM

Latest Report: Mar 7, 2015 at 4:30 AM


Visibility: 10 mi

Pressure: 30.36 "Hg

Humidity: 51%

Dew point: 12 °F

Location of KermanLocation

Historic Weather in Kerman — Graph

°F

Kerman temperature yesterday

Maximum temperature yesterday: 63 °F (at 12:30 PM)
Minimum temperature yesterday: 30 °F (at 5:30 AM)
Average temperature yesterday: 48 °F

Past Weeks' High & Low Weather Summary

 TemperatureHumidityPressure
High63 °F (Feb 20, 2:00 PM)100% (Feb 22, 12:30 AM)30.36 "Hg (Feb 22, 12:30 AM)
Low21 °F (Mar 1, 4:30 AM)2% (Mar 6, 12:00 PM)29.77 "Hg (Feb 21, 2:30 PM)
Average45 °F46%30.02 "Hg
* Reported Feb 20 3:30 AM — Mar 7 3:30 AM, Kerman, Weather by CustomWeather, © 2015

Note: Actual official high and low records may vary slightly from our data, if they occured in-between our weather recording intervals... More about our weather records

Advertising

Kerman weather history for previous 24 hours

 ConditionsComfort  
Time TempWeatherWind HumidityBarometerVisibility
3:30 AM
Sat, Mar 7
30 °FClear.No wind47%30.33 "Hg10 mi
2:30 AM32 °FClear.No wind44%30.36 "Hg10 mi
1:30 AM34 °FClear.5 mph41%30.36 "Hg10 mi
12:30 AM34 °FClear.7 mph41%30.36 "Hg10 mi
11:30 PM
Fri, Mar 6
36 °FClear.9 mph41%30.36 "Hg10 mi
10:30 PM37 °FClear.No wind41%30.36 "Hg10 mi
9:30 PM39 °FClear.7 mph39%30.36 "Hg10 mi
8:30 PM41 °FClear.12 mph36%30.33 "Hg5 mi
7:30 PM43 °FSandstorm.14 mph36%30.27 "Hg2 mi
6:30 PM45 °FSandstorm.23 mph37%30.24 "Hg2 mi
5:30 PM50 °FSandstorm.23 mph32%30.18 "Hg1 mi
4:30 PM61 °FPassing clouds.16 mph8%30.12 "HgN/A
3:30 PM63 °FPassing clouds.21 mph4%30.12 "HgN/A
2:30 PM63 °FPassing clouds.14 mph3%30.12 "HgN/A
2:00 PM63 °FPassing clouds.12 mph3%30.12 "HgN/A
1:30 PM63 °FPassing clouds.18 mph4%30.12 "HgN/A
12:30 PM63 °FPassing clouds.16 mph6%30.12 "HgN/A
12:00 PM61 °FPassing clouds.18 mph2%30.12 "HgN/A
11:30 AM61 °FPassing clouds.12 mph7%30.15 "HgN/A
11:00 AM61 °FPassing clouds.18 mph11%30.15 "HgN/A
10:30 AM59 °FSunny.7 mph14%30.15 "Hg10 mi
10:00 AM57 °FSunny.5 mph20%30.15 "Hg10 mi
9:30 AM54 °FSunny.7 mph22%30.15 "Hg10 mi
9:00 AM52 °FSunny.7 mph28%30.15 "Hg10 mi
8:20 AM52 °FSunny.5 mph28%30.15 "Hg10 mi
7:30 AM41 °FSunny.5 mph45%30.12 "Hg10 mi
6:30 AM30 °FClear.5 mph64%30.09 "Hg10 mi
5:30 AM30 °FClear.7 mph64%30.07 "Hg10 mi
Weather by CustomWeather, © 2015

See weather overviewHow to use our weather pages